User: anonymous   Login
Location: Albany
(35.0000°S, 118.0000°E)
Time: 13:04:37
(UTC-04:00)
Language:

CZ-4B R/B - Orbit

View from above orbital plane
View from above orbital plane
View from above satellite
View from above satellite

Ground track
Ground track

The orbit data is extracted from the following two-line orbital elements,

1 33410U 08053C   15116.84568186  .00003610  00000-0  27933-3 0  9994
2 33410 097.6253 089.7552 0123835 296.2548 062.5990 14.96205207353704
Epoch (UTC): 26 April 2015 20:17:46
Eccentricity: 0.0123835
inclination: 97.6253°
perigee height: 492 km
apogee height: 665 km
right ascension of ascending node: 89.7552°
argument of perigee: 296.2548°
revolutions per day: 14.96205207
mean anomaly at epoch: 62.5990°
orbit number at epoch: 35370

The dashed part of the orbit path shows where the satellite is in the earth's shadow,  

DLR